When you browse on this site, cookies collect data to enhance your experience and personalize the content and advertising you see.
Visit our Privacy Policy to learn more. By continuing to use the site, you agree to this use of cookies and data.
  • în România
  • Lista ţărilor
  • Pe 7 zile
  • Temperatura apei
  • Hartă satelitară
  • Meteo pe hartă
  • Widget-uri
  • user-avatar
    Intrare

    Meteo pe oră la Starovaskino

    Astăzi, 23 Iulie, Marţi

    Timp Temperatura Precipitaţii Vânt Presiune Umiditate
    00:00 +15°C° 0 mm 1 m/s 745 mmHg 93%
    01:00 +15°C° 0 mm 1 m/s 745 mmHg 94%
    02:00 +14°C° 0 mm 1 m/s 745 mmHg 95%
    03:00 +14°C° 0 mm 1 m/s 745 mmHg 96%
    04:00 +13°C° 0 mm 1 m/s 745 mmHg 96%
    05:00 +14°C° 0 mm 1 m/s 746 mmHg 96%
    06:00 +15°C° 0 mm 2 m/s 746 mmHg 95%
    07:00 +16°C° 0 mm 2 m/s 746 mmHg 94%
    08:00 +17°C° 0 mm 2 m/s 746 mmHg 91%
    09:00 +18°C° 0 mm 3 m/s 746 mmHg 88%
    10:00 +19°C° 0 mm 3 m/s 746 mmHg 84%
    11:00 +20°C° 0.6 mm 4 m/s 746 mmHg 83%
    12:00 +20°C° 0.6 mm 4 m/s 746 mmHg 82%
    13:00 +21°C° 0.6 mm 4 m/s 746 mmHg 81%
    14:00 +21°C° 0.8 mm 4 m/s 747 mmHg 82%
    15:00 +20°C° 0.8 mm 4 m/s 747 mmHg 83%
    16:00 +20°C° 0.8 mm 4 m/s 747 mmHg 84%
    17:00 +20°C° 0.3 mm 4 m/s 747 mmHg 86%
    18:00 +19°C° 0.3 mm 4 m/s 747 mmHg 88%
    19:00 +19°C° 0.3 mm 3 m/s 747 mmHg 90%
    20:00 +18°C° 0 mm 3 m/s 747 mmHg 92%
    21:00 +17°C° 0 mm 3 m/s 747 mmHg 93%
    22:00 +14°C° 0 mm 3 m/s 748 mmHg 95%
    23:00 +15°C° 0 mm 2 m/s 748 mmHg 95%

    Mâine, 24 Iulie, Miercuri

    Timp Temperatura Precipitaţii Vânt Presiune Umiditate
    00:00 +15°C° 0 mm 2 m/s 748 mmHg 96%
    01:00 +14°C° 0 mm 2 m/s 748 mmHg 96%
    02:00 +14°C° 0 mm 2 m/s 748 mmHg 97%
    03:00 +14°C° 0 mm 2 m/s 748 mmHg 97%
    04:00 +14°C° 0 mm 2 m/s 748 mmHg 97%
    05:00 +15°C° 0 mm 2 m/s 749 mmHg 96%
    06:00 +16°C° 0 mm 2 m/s 749 mmHg 95%
    07:00 +17°C° 0 mm 2 m/s 749 mmHg 94%
    08:00 +18°C° 0 mm 2 m/s 749 mmHg 88%
    09:00 +20°C° 0 mm 2 m/s 749 mmHg 83%
    10:00 +21°C° 0 mm 2 m/s 749 mmHg 77%
    11:00 +23°C° 0.3 mm 2 m/s 750 mmHg 77%
    12:00 +22°C° 0.3 mm 3 m/s 750 mmHg 78%
    13:00 +24°C° 0.3 mm 3 m/s 750 mmHg 78%
    14:00 +24°C° 0.8 mm 3 m/s 750 mmHg 78%
    15:00 +24°C° 0.8 mm 3 m/s 750 mmHg 77%
    16:00 +25°C° 0.8 mm 3 m/s 750 mmHg 77%
    17:00 +24°C° 0.3 mm 2 m/s 750 mmHg 80%
    18:00 +23°C° 0.3 mm 2 m/s 750 mmHg 83%
    19:00 +23°C° 0.3 mm 2 m/s 750 mmHg 86%
    20:00 +21°C° 0 mm 2 m/s 750 mmHg 87%
    21:00 +19°C° 0 mm 2 m/s 750 mmHg 88%
    22:00 +18°C° 0 mm 2 m/s 750 mmHg 89%
    23:00 +17°C° 0 mm 2 m/s 750 mmHg 90%

    Poimâine, 25 Iulie, Joi

    Timp Temperatura Precipitaţii Vânt Presiune Umiditate
    00:00 +17°C° 0 mm 2 m/s 751 mmHg 91%
    01:00 +16°C° 0 mm 2 m/s 751 mmHg 91%
    02:00 +16°C° 0 mm 2 m/s 751 mmHg 91%
    03:00 +16°C° 0 mm 2 m/s 751 mmHg 92%
    04:00 +15°C° 0 mm 2 m/s 751 mmHg 92%
    05:00 +17°C° 0 mm 2 m/s 751 mmHg 91%
    06:00 +18°C° 0 mm 2 m/s 752 mmHg 89%
    07:00 +19°C° 0 mm 3 m/s 752 mmHg 88%
    08:00 +21°C° 0 mm 3 m/s 752 mmHg 82%
    09:00 +22°C° 0 mm 3 m/s 752 mmHg 76%
    10:00 +25°C° 0 mm 3 m/s 752 mmHg 69%
    11:00 +26°C° 0 mm 3 m/s 752 mmHg 65%
    12:00 +27°C° 0 mm 3 m/s 752 mmHg 60%
    13:00 +27°C° 0 mm 3 m/s 752 mmHg 55%
    14:00 +28°C° 0 mm 3 m/s 752 mmHg 57%
    15:00 +28°C° 0 mm 3 m/s 752 mmHg 58%
    16:00 +28°C° 0 mm 3 m/s 752 mmHg 60%
    17:00 +27°C° 0 mm 3 m/s 751 mmHg 65%
    18:00 +25°C° 0 mm 3 m/s 751 mmHg 71%
    19:00 +24°C° 0 mm 3 m/s 751 mmHg 76%
    20:00 +22°C° 0 mm 3 m/s 752 mmHg 78%
    21:00 +20°C° 0 mm 3 m/s 752 mmHg 80%
    22:00 +19°C° 0 mm 2 m/s 752 mmHg 82%
    23:00 +18°C° 0 mm 3 m/s 752 mmHg 82%

    26 Iulie, Vineri

    Timp Temperatura Precipitaţii Vânt Presiune Umiditate
    00:00 +18°C° 0 mm 3 m/s 752 mmHg 83%
    01:00 +18°C° 0 mm 3 m/s 752 mmHg 84%
    02:00 +17°C° 0 mm 2 m/s 752 mmHg 83%
    03:00 +17°C° 0 mm 2 m/s 752 mmHg 81%
    04:00 +16°C° 0 mm 1 m/s 752 mmHg 80%
    05:00 +18°C° 0 mm 1 m/s 752 mmHg 77%
    06:00 +20°C° 0 mm 1 m/s 752 mmHg 75%
    07:00 +21°C° 0 mm 1 m/s 752 mmHg 72%
    08:00 +23°C° 0 mm 1 m/s 752 mmHg 67%
    09:00 +24°C° 0 mm 1 m/s 752 mmHg 63%
    10:00 +26°C° 0 mm 2 m/s 752 mmHg 58%
    11:00 +26°C° 0 mm 2 m/s 752 mmHg 56%
    12:00 +27°C° 0 mm 2 m/s 751 mmHg 55%
    13:00 +28°C° 0 mm 2 m/s 751 mmHg 53%
    14:00 +28°C° 0 mm 2 m/s 751 mmHg 54%
    15:00 +28°C° 0 mm 2 m/s 751 mmHg 55%
    16:00 +28°C° 0 mm 2 m/s 750 mmHg 55%
    17:00 +27°C° 0 mm 2 m/s 750 mmHg 62%
    18:00 +26°C° 0 mm 2 m/s 750 mmHg 68%
    19:00 +25°C° 0 mm 2 m/s 750 mmHg 75%
    20:00 +23°C° 0 mm 2 m/s 749 mmHg 79%
    21:00 +21°C° 0 mm 2 m/s 749 mmHg 83%
    22:00 +19°C° 0 mm 2 m/s 749 mmHg 87%
    23:00 +18°C° 0 mm 2 m/s 749 mmHg 87%

    27 Iulie, Sâmbătă

    Timp Temperatura Precipitaţii Vânt Presiune Umiditate
    00:00 +19°C° 0 mm 1 m/s 749 mmHg 87%
    01:00 +18°C° 0 mm 1 m/s 748 mmHg 88%
    02:00 +18°C° 0 mm 1 m/s 748 mmHg 87%
    03:00 +18°C° 0 mm 1 m/s 748 mmHg 86%
    04:00 +16°C° 0 mm 1 m/s 748 mmHg 85%
    05:00 +18°C° 0 mm 1 m/s 747 mmHg 83%
    06:00 +18°C° 0 mm 0 m/s 747 mmHg 80%
    07:00 +19°C° 0 mm 0 m/s 747 mmHg 77%
    08:00 +20°C° 0.1 mm 0 m/s 747 mmHg 74%
    09:00 +22°C° 0.1 mm 0 m/s 746 mmHg 71%
    10:00 +23°C° 0.1 mm 0 m/s 746 mmHg 67%
    11:00 +24°C° 0.3 mm 0 m/s 746 mmHg 65%
    12:00 +24°C° 0.3 mm 0 m/s 745 mmHg 62%
    13:00 +25°C° 0.3 mm 0 m/s 745 mmHg 60%
    14:00 +25°C° 0.1 mm 0 m/s 744 mmHg 59%
    15:00 +25°C° 0.1 mm 0 m/s 744 mmHg 58%
    16:00 +25°C° 0.1 mm 0 m/s 743 mmHg 57%
    17:00 +26°C° 0.3 mm 1 m/s 743 mmHg 64%
    18:00 +24°C° 0.3 mm 1 m/s 742 mmHg 72%
    19:00 +23°C° 0.3 mm 2 m/s 742 mmHg 80%
    20:00 +22°C° 0 mm 1 m/s 741 mmHg 82%
    21:00 +20°C° 0 mm 1 m/s 741 mmHg 84%
    22:00 +17°C° 0 mm 0 m/s 741 mmHg 86%
    23:00 +19°C° 0 mm 1 m/s 740 mmHg 86%

    28 Iulie, Duminică

    Timp Temperatura Precipitaţii Vânt Presiune Umiditate
    00:00 +18°C° 0 mm 1 m/s 740 mmHg 87%
    01:00 +18°C° 0 mm 1 m/s 739 mmHg 88%
    02:00 +16°C° 0 mm 1 m/s 739 mmHg 89%
    03:00 +16°C° 0 mm 1 m/s 738 mmHg 91%
    04:00 +16°C° 0 mm 2 m/s 738 mmHg 92%
    05:00 +17°C° 0.2 mm 2 m/s 737 mmHg 91%
    06:00 +18°C° 0.2 mm 2 m/s 737 mmHg 90%
    07:00 +18°C° 0.2 mm 3 m/s 736 mmHg 89%
    08:00 +19°C° 0.7 mm 3 m/s 736 mmHg 86%
    09:00 +21°C° 0.7 mm 3 m/s 735 mmHg 84%
    10:00 +22°C° 0.7 mm 3 m/s 734 mmHg 82%
    11:00 +22°C° 1.7 mm 3 m/s 734 mmHg 81%
    12:00 +22°C° 1.7 mm 3 m/s 734 mmHg 81%
    13:00 +22°C° 1.7 mm 3 m/s 734 mmHg 80%
    14:00 +22°C° 1.3 mm 3 m/s 733 mmHg 82%
    15:00 +21°C° 1.3 mm 3 m/s 733 mmHg 85%
    16:00 +21°C° 1.3 mm 3 m/s 733 mmHg 87%
    17:00 +19°C° 0.5 mm 3 m/s 733 mmHg 90%
    18:00 +17°C° 0.5 mm 4 m/s 733 mmHg 93%
    19:00 +14°C° 0.5 mm 5 m/s 733 mmHg 96%
    20:00 +13°C° 0.5 mm 4 m/s 733 mmHg 96%
    21:00 +13°C° 0.5 mm 4 m/s 733 mmHg 97%
    22:00 +12°C° 0.5 mm 4 m/s 733 mmHg 97%
    23:00 +12°C° 0.3 mm 4 m/s 733 mmHg 97%
    Arată mai mult